| time (UTC) | temp F | wind direction | speed knots | gust knots | rain 1hr in | rain 24hr in | rain mn in | humidity % | barometer mb |
| 20260507193047 | 57 | 0.0 | 0.0 | 0.00 | 0.02 | 0.01 | 74 | 1012.0 | |
| 20260507191532 | 58 | 0.0 | 0.0 | 0.00 | 0.02 | 0.01 | 73 | 1011.8 | |
| 20260507190030 | 59 | 0.0 | 0.0 | 0.00 | 0.02 | 0.01 | 72 | 1011.7 | |
| 20260507184523 | 60 | 0.0 | 0.0 | 0.00 | 0.06 | 0.01 | 70 | 1011.6 | |
| 20260507183019 | 60 | 0.0 | 0.0 | 0.00 | 0.06 | 0.01 | 69 | 1011.4 | |
| 20260507181515 | 61 | 0.0 | 0.0 | 0.00 | 0.06 | 0.01 | 68 | 1011.4 | |
| 20260507180009 | 61 | 0.0 | 0.0 | 0.00 | 0.06 | 0.01 | 67 | 1011.3 | |
| 20260507174506 | 62 | 0.0 | 0.0 | 0.00 | 0.12 | 0.01 | 66 | 1011.1 | |
| 20260507173001 | 62 | 0.0 | 0.0 | 0.00 | 0.12 | 0.01 | 65 | 1011.1 | |
| 20260507171604 | 63 | 0.0 | 0.0 | 0.00 | 0.12 | 0.01 | 64 | 1011.2 | |
| 20260507170055 | 63 | 0.0 | 0.0 | 0.00 | 0.12 | 0.01 | 62 | 1011.2 | |
| 20260507164554 | 64 | 0.0 | 0.0 | 0.00 | 0.12 | 0.01 | 62 | 1011.3 | |
| 20260507163101 | 65 | 0.0 | 0.0 | 0.00 | 0.12 | 0.01 | 58 | 1011.4 | |
| 20260507161553 | 66 | 0.0 | 0.0 | 0.00 | 0.12 | 0.01 | 59 | 1011.4 | |
| 20260507160050 | 66 | 0.0 | 0.0 | 0.00 | 0.12 | 0.01 | 56 | 1011.5 | |
| 20260507154544 | 66 | 0.0 | 0.0 | 0.00 | 0.12 | 0.01 | 59 | 1011.6 | |
| 20260507153039 | 65 | 0.0 | 0.0 | 0.00 | 0.12 | 0.01 | 59 | 1011.6 | |
| 20260507151537 | 65 | 0.0 | 0.0 | 0.00 | 0.12 | 0.01 | 56 | 1011.6 | |
| 20260507150031 | 64 | 0.0 | 0.0 | 0.00 | 0.12 | 0.01 | 62 | 1011.8 | |
| 20260507144536 | 65 | 0.0 | 0.0 | 0.00 | 0.12 | 0.01 | 60 | 1011.8 | |
| 20260507143021 | 64 | 0.0 | 0.0 | 0.00 | 0.12 | 0.01 | 59 | 1011.9 | |
| 20260507141517 | 65 | 0.0 | 0.0 | 0.00 | 0.12 | 0.01 | 58 | 1011.9 | |
| 20260507140011 | 65 | 0.0 | 0.0 | 0.00 | 0.12 | 0.01 | 59 | 1012.1 | |
| 20260507134508 | 65 | 0.0 | 0.0 | 0.00 | 0.12 | 0.01 | 58 | 1012.4 | |
| 20260507133003 | 64 | 0.0 | 0.0 | 0.00 | 0.12 | 0.01 | 62 | 1012.4 | |
| 20260507131559 | 65 | 0.0 | 0.0 | 0.00 | 0.12 | 0.01 | 64 | 1012.6 | |
| 20260507130105 | 64 | 0.0 | 0.0 | 0.00 | 0.12 | 0.01 | 67 | 1012.7 | |
| 20260507124550 | 64 | 0.0 | 0.0 | 0.00 | 0.12 | 0.01 | 66 | 1012.8 | |
| 20260507123048 | 63 | 0.0 | 0.0 | 0.00 | 0.12 | 0.01 | 68 | 1012.9 | |
| 20260507121541 | 63 | 0.0 | 0.0 | 0.00 | 0.12 | 0.01 | 71 | 1012.9 | |
| 20260507120037 | 64 | 0.0 | 0.0 | 0.00 | 0.12 | 0.01 | 74 | 1013.0 | |
| 20260507114534 | 63 | 0.0 | 0.0 | 0.00 | 0.12 | 0.01 | 72 | 1013.0 | |
| 20260507113029 | 64 | 0.0 | 0.0 | 0.00 | 0.12 | 0.01 | 71 | 1013.2 | |
| 20260507111535 | 63 | 0.0 | 0.0 | 0.00 | 0.12 | 0.01 | 73 | 1013.3 | |
| 20260507110020 | 63 | 0.0 | 0.0 | 0.00 | 0.12 | 0.01 | 70 | 1013.3 | |
| 20260507104519 | 62 | 0.0 | 0.0 | 0.00 | 0.12 | 0.01 | 73 | 1013.3 | |
| 20260507103010 | 63 | 0.0 | 0.0 | 0.00 | 0.12 | 0.01 | 70 | 1013.4 | |
| 20260507101507 | 61 | 0.0 | 0.0 | 0.00 | 0.12 | 0.01 | 77 | 1013.4 | |
| 20260507100001 | 60 | 0.0 | 0.0 | 0.00 | 0.16 | 0.01 | 75 | 1013.5 | |
| 20260507094558 | 61 | 0.0 | 0.0 | 0.00 | 0.16 | 0.01 | 77 | 1013.6 | |
| 20260507093059 | 60 | 0.0 | 0.0 | 0.00 | 0.16 | 0.01 | 80 | 1013.4 | |
| 20260507091551 | 59 | 0.0 | 0.0 | 0.00 | 0.16 | 0.01 | 83 | 1013.4 | |
| 20260507090043 | 58 | 0.0 | 0.0 | 0.00 | 0.16 | 0.01 | 86 | 1013.4 | |
| 20260507084544 | 57 | 0.0 | 0.0 | 0.00 | 0.24 | 0.01 | 90 | 1013.4 | |
| 20260507083036 | 55 | 0.0 | 0.0 | 0.00 | 0.24 | 0.01 | 91 | 1013.4 | |
| 20260507081531 | 55 | 0.0 | 0.0 | 0.00 | 0.24 | 0.01 | 93 | 1013.4 | |
| 20260507080027 | 54 | 0.0 | 0.0 | 0.00 | 0.24 | 0.01 | 95 | 1013.4 | |
| 20260507074522 | 54 | 0.0 | 0.0 | 0.00 | 0.39 | 0.01 | 95 | 1013.3 | |
| 20260507073018 | 53 | 0.0 | 0.0 | 0.00 | 0.39 | 0.01 | 96 | 1013.2 | |
| 20260507071514 | 53 | 0.0 | 0.0 | 0.00 | 0.39 | 0.01 | 96 | 1013.3 | |
| 20260507070015 | 52 | 0.0 | 0.0 | 0.00 | 0.39 | 0.01 | 96 | 1013.1 | |
| 20260507064506 | 51 | 0.0 | 0.0 | 0.00 | 0.50 | 0.01 | 96 | 1013.1 | |
| 20260507063101 | 51 | 0.0 | 0.0 | 0.00 | 0.50 | 0.01 | 96 | 1013.0 | |
| 20260507061556 | 50 | 0.0 | 0.0 | 0.00 | 0.50 | 0.01 | 96 | 1013.0 | |
| 20260507060057 | 50 | 0.0 | 0.0 | 0.00 | 0.50 | 0.01 | 96 | 1013.0 | |
| 20260507054550 | 50 | 0.0 | 0.0 | 0.01 | 0.63 | 0.01 | 96 | 1012.9 | |
| 20260507053049 | 49 | 0.0 | 0.0 | 0.01 | 0.63 | 0.01 | 96 | 1012.8 | |
| 20260507051539 | 49 | 0.0 | 0.0 | 0.01 | 0.63 | 0.01 | 96 | 1012.5 | |
| 20260507050034 | 49 | 0.0 | 0.0 | 0.01 | 0.63 | 0.01 | 96 | 1012.4 | |
| 20260507044546 | 49 | 0.0 | 0.0 | 0.00 | 0.72 | 0.00 | 96 | 1012.3 | |
| 20260507043026 | 49 | 0.0 | 0.0 | 0.00 | 0.72 | 0.00 | 95 | 1012.3 | |
| 20260507041521 | 49 | 0.0 | 0.0 | 0.00 | 0.72 | 0.00 | 95 | 1012.3 | |
| 20260507040016 | 49 | 0.0 | 0.0 | 0.00 | 0.72 | 0.00 | 96 | 1012.2 | |
| 20260507034512 | 49 | 0.0 | 0.0 | 0.00 | 0.80 | 0.00 | 96 | 1012.1 | |
| 20260507033008 | 48 | 0.0 | 0.0 | 0.00 | 0.80 | 0.00 | 95 | 1012.1 | |
| 20260507031503 | 48 | 0.0 | 0.0 | 0.00 | 0.80 | 0.00 | 95 | 1012.0 | |
| 20260507030104 | 48 | 0.0 | 0.0 | 0.00 | 0.80 | 0.00 | 95 | 1012.0 | |
| 20260507024559 | 48 | 0.0 | 0.0 | 0.00 | 0.83 | 0.00 | 95 | 1012.1 | |
| 20260507023053 | 48 | 0.0 | 0.0 | 0.00 | 0.83 | 0.00 | 95 | 1012.0 | |
| 20260507021548 | 48 | 0.0 | 0.0 | 0.00 | 0.83 | 0.00 | 95 | 1011.9 | |
| 20260507020049 | 48 | 0.0 | 0.0 | 0.00 | 0.83 | 0.00 | 95 | 1011.8 | |
| 20260507014537 | 49 | 0.0 | 0.0 | 0.00 | 0.83 | 0.00 | 95 | 1011.7 | |
| 20260507013033 | 49 | 0.0 | 0.0 | 0.00 | 0.83 | 0.00 | 95 | 1011.7 | |
| 20260507011529 | 49 | 0.0 | 0.0 | 0.00 | 0.83 | 0.00 | 95 | 1011.6 | |
| 20260507010028 | 49 | 0.0 | 0.0 | 0.00 | 0.83 | 0.00 | 95 | 1011.7 | |
| 20260507004530 | 50 | 0.0 | 0.0 | 0.00 | 0.83 | 0.00 | 95 | 1011.6 | |
| 20260507003021 | 50 | 0.0 | 0.0 | 0.00 | 0.83 | 0.00 | 95 | 1011.7 | |
| 20260507001521 | 50 | 0.0 | 0.0 | 0.00 | 0.83 | 0.00 | 95 | 1011.7 | |
| 20260507000012 | 50 | 0.0 | 0.0 | 0.00 | 0.83 | 0.00 | 95 | 1011.5 | |
| 20260506234507 | 50 | 0.0 | 0.0 | 0.00 | 0.83 | 0.00 | 95 | 1011.4 | |
| 20260506233102 | 50 | 0.0 | 0.0 | 0.00 | 0.83 | 0.00 | 94 | 1011.5 | |
| 20260506231554 | 50 | 0.0 | 0.0 | 0.00 | 0.83 | 0.00 | 94 | 1011.5 | |
| 20260506230054 | 50 | 0.0 | 0.0 | 0.00 | 0.83 | 0.00 | 94 | 1011.5 | |
| 20260506224559 | 50 | 0.0 | 0.0 | 0.00 | 0.83 | 0.00 | 94 | 1011.4 | |
| 20260506223042 | 50 | 0.0 | 0.0 | 0.00 | 0.83 | 0.00 | 94 | 1011.3 | |
| 20260506221537 | 50 | 0.0 | 0.0 | 0.00 | 0.83 | 0.00 | 94 | 1011.3 | |
| 20260506220037 | 50 | 0.0 | 0.0 | 0.00 | 0.83 | 0.00 | 94 | 1011.2 | |
| 20260506214528 | 50 | 0.0 | 0.0 | 0.00 | 0.97 | 0.83 | 94 | 1011.1 | |
| 20260506213024 | 50 | 0.0 | 0.0 | 0.00 | 0.97 | 0.83 | 94 | 1011.1 | |
| 20260506211519 | 50 | 0.0 | 0.0 | 0.00 | 0.97 | 0.83 | 94 | 1011.1 | |
| 20260506210021 | 50 | 0.0 | 0.0 | 0.00 | 0.97 | 0.83 | 93 | 1011.1 | |
| 20260506204513 | 50 | 0.0 | 0.0 | 0.00 | 1.05 | 0.83 | 93 | 1010.9 | |
| 20260506203007 | 50 | 0.0 | 0.0 | 0.00 | 1.05 | 0.83 | 93 | 1010.8 | |
| 20260506201503 | 50 | 0.0 | 0.0 | 0.00 | 1.05 | 0.83 | 92 | 1010.6 | |
| 20260506200058 | 51 | 0.0 | 0.0 | 0.01 | 1.05 | 0.83 | 92 | 1010.6 | |
| 20260506194604 | 51 | 0.0 | 0.0 | 0.02 | 1.05 | 0.83 | 92 | 1010.4 |